Temp
56 57 57 57 57 57 57 58 58 58 58 59 59 59 59 59 58 60 70 77 70 67 74 77 79 72 73 75 71 78 81 83 81 74 75 78 77 81 79 81 78 76 74 75 76 71 60 83 84 75 79 84 84 84
56 56 56 57 57 57 57 57 57 58 58 58 59 59 59 59 58 58 66 77 78 68 67 80 81 81 78 77 74 78 79 81 81 79 80 82 79 81 79 67 85 64 79 74 74 69 78 82 80 85 86 81 81 82
56 56 56 56 56 57 57 57 57 57 58 58 58 59 59 58 58 59 65 72 74 69 72 75 75 82 88 86 87 73 80 83 82 85 81 81 71 78 73 70 77 80 84 77 77 78 78 80 82 83 84 82 83 84
55 56 56 56 56 56 57 57 57 57 57 58 58 58 58 58 58 58 65 71 73 68 63 70 84 78 86 87 84 86 84 86 86 85 82 81 76 82 76 78 74 79 79 76 71 73 80 79 80 81 82 82 82 83
55 55 55 56 56 56 57 57 57 57 57 57 58 58 58 58 57 62 70 69 76 65 56 67 74 83 85 82 81 84 85 82 81 79 79 75 79 79 80 80 71 77 70 69 65 73 72 73 80 82 80 79 81 80
55 55 55 56 56 56 56 57 57 57 57 57 57 58 58 58 58 67 60 73 74 70 63 54 74 75 80 80 79 78 80 79 81 80 77 78 82 76 74 66 75 76 76 76 72 76 76 78 81 82 79 80 81 80
55 55 55 55 56 56 56 56 57 57 57 57 57 58 58 57 62 63 59 65 61 71 55 51 59 75 78 79 78 77 80 76 78 77 76 76 76 75 71 62 72 74 74 75 77 75 72 76 74 79 79 80 79 81
55 55 55 55 55 56 56 56 57 57 57 57 57 57 57 57 58 63 70 62 62 61 56 52 57 66 76 71 69 77 73 74 71 74 76 73 74 72 58 64 68 70 71 72 71 74 74 75 76 75 77 77 76 76
54 55 55 55 55 55 56 56 56 56 56 56 57 57 65 64 64 69 61 61 70 59 52 56 54 54 77 71 73 74 75 65 71 69 70 73 64 53 58 63 66 67 67 68 71 72 71 70 70 71 71 71 70 71
55 55 55 55 55 55 55 55 56 56 55 56 62 64 55 69 60 66 71 68 67 59 52 47 65 61 68 68 68 69 71 66 60 64 71 63 56 64 67 67 65 66 68 68 63 61 64 63 64 65 65 67 68 68
54 55 55 55 55 55 55 55 55 55 57 68 61 60 72 62 66 56 49 53 56 57 63 61 63 61 71 62 62 69 67 67 57 61 60 57 51 59 64 66 68 70 70 71 71 70 69 66 66 65 66 67 67 67
54 54 54 55 55 55 55 55 55 66 68 61 61 68 73 59 53 48 50 56 55 50 57 57 61 65 68 70 67 67 63 63 54 66 56 50 56 61 64 66 65 66 69 68 70 68 67 66 67 67 66 66 64 64
54 54 55 55 55 55 55 55 56 56 57 71 65 64 61 59 44 47 42 47 47 54 57 60 58 65 68 70 67 62 57 57 68 56 53 56 59 63 62 65 65 70 70 68 68 71 69 68 68 66 63 63 62 60
54 54 55 56 55 55 55 55 56 61 64 58 58 40 50 47 47 46 46 49 57 59 59 54 60 61 66 62 60 55 58 61 54 49 48 56 58 61 64 66 66 69 69 66 65 68 67 67 65 65 62 59 56 54
54 55 55 58 56 56 56 56 56 68 66 57 56 39 43 46 48 52 56 57 61 60 59 62 60 61 58 56 57 57 55 52 53 52 53 57 63 63 64 65 68 67 67 67 66 66 67 66 64 62 62 58 55 54
55 54 62 56 56 55 55 61 68 69 62 56 51 45 47 46 47 50 52 55 62 60 65 63 57 55 53 55 52 49 49 47 54 60 64 66 64 64 63 64 66 67 66 67 64 67 68 65 64 61 62 58 56 55
53 71 54 56 55 55 55 66 64 55 51 48 45 48 46 46 45 47 50 52 59 61 55 57 50 49 58 50 46 53 52 57 62 65 67 64 63 63 64 66 66 66 68 67 67 66 66 66 66 63 58 59 58 57
72 69 57 55 58 67 73 68 59 53 47 48 47 50 53 52 49 50 51 53 54 56 55 49 55 50 49 48 51 57 61 64 64 65 65 65 66 66 66 65 67 65 68 67 66 66 64 64 62 60 61 61 59 56
64 63 57 55 59 64 71 69 70 59 59 62 60 59 59 59 59 59 58 61 61 59 57 56 55 52 53 57 57 59 60 61 62 62 63 66 65 67 62 63 68 67 69 65 63 65 64 62 65 62 61 62 58 56
54 55 56 57 60 70 68 69 73 62 62 65 64 66 66 63 66 66 67 65 65 63 62 57 54 56 58 61 63 62 62 63 64 63 64 64 71 65 61 62 68 68 69 67 65 59 66 59 64 62 61 59 58 56
55 67 60 66 77 77 71 68 68 68 63 57 65 68 58 65 65 63 62 67 65 59 56 59 61 63 67 66 69 66 66 64 62 63 63 64 68 59 63 67 66 64 68 68 65 62 56 58 61 61 64 60 60 59
75 60 74 74 76 75 74 77 72 74 62 63 67 67 61 59 61 63 68 63 58 58 60 61 64 64 61 64 66 71 71 67 60 62 61 59 64 65 62 69 69 62 65 67 65 65 60 61 64 63 61 62 59 61
64 65 75 77 71 60 59 77 66 67 61 67 67 61 59 62 67 72 62 60 61 65 69 68 68 68 65 64 66 70 64 62 64 65 66 63 65 65 73 72 71 68 67 66 63 63 63 55 58 64 63 63 64 63
56 71 69 71 70 60 73 66 68 64 66 62 60 60 63 60 68 61 57 60 59 59 64 65 69 67 70 64 68 71 73 75 70 71 74 74 73 73 74 74 73 72 71 71 69 68 65 65 57 64 64 66 63 63
56 57 60 43 71 67 64 63 63 61 58 62 59 61 61 62 59 58 55 57 60 68 70 67 69 69 64 63 71 71 76 76 74 72 75 76 74 74 73 74 73 73 74 71 69 69 68 69 69 67 66 66 64 61
46 66 53 70 70 64 66 61 61 59 60 61 61 68 69 62 57 54 57 62 66 70 66 59 69 68 61 62 69 73 75 78 76 74 75 77 75 73 71 69 68 70 75 73 71 69 68 68 68 68 67 65 55 64
52 65 73 78 74 72 67 69 69 63 59 59 65 63 63 58 56 62 69 71 71 74 76 75 74 69 72 73 75 77 79 79 76 76 78 78 78 77 75 71 69 72 75 75 73 71 69 68 68 68 67 67 65 62
71 69 65 70 71 72 64 64 61 60 62 71 68 62 62 62 62 70 72 75 77 77 78 79 79 80 75 78 79 78 78 78 79 79 79 79 79 79 78 78 78 55 74 76 75 74 72 71 69 68 68 67 66 66
68 69 71 66 68 65 66 64 65 67 74 72 69 67 67 72 76 76 75 78 80 79 77 77 79 81 80 78 80 79 79 78 73 68 66 68 71 73 78 78 78 78 78 77 52 62 70 71 70 71 70 69 68 68
66 75 66 67 64 59 66 73 69 71 77 77 76 74 73 75 78 82 81 79 78 77 79 79 80 80 78 77 76 76 80 79 76 72 67 67 70 75 76 76 76 78 78 77 76 75 56 69 66 71 68 66 66 65
72 69 65 66 62 68 73 74 77 71 73 74 78 74 73 76 79 81 80 79 80 80 79 77 79 80 78 76 74 72 72 77 76 75 73 74 75 74 74 74 76 77 76 75 75 74 73 71 70 68 67 66 65 60
66 65 64 61 64 72 75 68 71 70 68 70 71 76 76 74 71 76 80 80 79 78 64 74 77 76 78 79 79 78 54 78 76 75 72 72 72 72 73 75 76 75 74 73 74 73 72 69 67 66 66 65 64 64
64 67 66 65 64 65 68 68 67 66 66 68 68 73 76 73 68 76 81 82 79 78 78 79 81 81 79 79 78 77 67 76 63 55 53 49 47 53 66 74 73 73 71 71 71 71 70 67 66 65 64 63 64 63
MSLP
1022.19 1021.68 1021.13 1020.61 1020.11 1019.59 1019.14 1018.69 1018.38 1018.03 1017.69 1017.32 1016.94 1016.66 1016.36 1016.01 1015.66 1015.16 1012.39 1011.18 1010.95 1009.22 1007.10 1006.33 1005.52 1005.41 1004.64 1003.60 1002.30 1001.11 1000.16 1000.17 999.87 999.56 998.50 997.31 996.67 996.37 996.45 996.69 996.85 997.64 998.09 998.20 998.81 1000.17 1002.86 1003.03 1002.30 1002.03 1003.47 1004.20 1004.46 1004.42
1022.09 1021.58 1021.08 1020.56 1020.08 1019.58 1019.11 1018.67 1018.31 1017.95 1017.62 1017.28 1016.90 1016.56 1016.24 1015.92 1015.64 1015.38 1012.65 1011.32 1010.96 1010.44 1008.90 1007.54 1006.86 1006.70 1006.34 1005.93 1005.01 1002.77 1001.23 1000.39 1000.30 999.39 998.78 997.72 996.95 997.07 996.83 997.36 998.14 999.22 999.62 999.66 1001.12 1003.01 1004.50 1004.47 1004.68 1004.90 1005.03 1005.64 1005.92 1005.93
1021.93 1021.46 1020.98 1020.49 1020.04 1019.57 1019.12 1018.70 1018.31 1017.91 1017.53 1017.20 1016.84 1016.50 1016.16 1015.81 1015.58 1015.42 1013.71 1011.98 1010.78 1009.87 1008.35 1007.33 1006.30 1006.44 1006.07 1005.74 1005.47 1004.51 1002.43 1002.14 1001.27 1001.22 999.79 998.58 998.53 999.22 998.46 999.67 999.39 1000.89 1001.53 1001.14 1002.13 1004.34 1005.02 1005.84 1006.36 1006.50 1006.65 1006.86 1007.02 1006.94
1021.83 1021.32 1020.86 1020.41 1019.95 1019.49 1019.06 1018.65 1018.24 1017.83 1017.42 1017.06 1016.71 1016.36 1016.02 1015.63 1015.34 1015.28 1013.79 1012.47 1011.02 1010.28 1008.33 1006.66 1006.56 1006.69 1006.25 1005.93 1005.72 1004.81 1003.76 1003.20 1002.57 1001.54 1000.24 999.66 999.71 1000.55 1000.65 1001.62 1001.91 1002.31 1002.63 1002.97 1004.62 1006.06 1006.06 1006.92 1007.45 1007.51 1007.44 1007.81 1007.82 1007.69
1021.72 1021.21 1020.69 1020.23 1019.79 1019.35 1018.92 1018.52 1018.10 1017.65 1017.23 1016.84 1016.49 1016.21 1015.92 1015.48 1015.12 1014.58 1013.22 1012.49 1011.18 1011.54 1010.27 1008.32 1007.52 1006.43 1006.25 1006.49 1005.82 1005.01 1004.04 1003.46 1002.64 1002.15 1001.54 1001.47 1002.05 1002.05 1002.69 1002.67 1004.58 1005.20 1005.87 1005.90 1007.14 1007.97 1008.15 1008.35 1008.15 1008.09 1008.29 1008.44 1008.34 1008.16
1021.45 1020.97 1020.51 1020.05 1019.59 1019.19 1018.77 1018.36 1017.91 1017.45 1017.03 1016.62 1016.27 1016.01 1015.77 1015.49 1015.31 1014.07 1012.80 1011.84 1012.47 1012.26 1011.33 1010.61 1008.58 1007.07 1006.74 1006.61 1006.17 1005.72 1005.10 1004.51 1003.62 1002.88 1003.12 1003.98 1004.30 1004.44 1003.84 1005.64 1006.89 1007.84 1008.65 1008.94 1009.11 1009.64 1009.65 1009.41 1009.01 1008.88 1008.98 1008.93 1008.69 1008.71
1021.10 1020.64 1020.23 1019.80 1019.37 1018.98 1018.58 1018.16 1017.70 1017.25 1016.80 1016.37 1016.00 1015.75 1015.58 1015.38 1015.15 1014.29 1014.06 1013.72 1013.78 1013.28 1013.16 1012.16 1008.99 1007.82 1007.18 1006.61 1006.36 1006.23 1005.88 1005.59 1004.88 1004.76 1004.80 1005.17 1005.91 1006.16 1006.94 1008.30 1009.31 1009.98 1010.46 1010.43 1010.54 1010.82 1010.59 1010.31 1010.01 1009.98 1009.76 1009.41 1009.24 1008.99
1020.79 1020.33 1019.90 1019.48 1019.09 1018.72 1018.34 1017.91 1017.42 1016.98 1016.55 1016.13 1015.77 1015.50 1015.29 1014.97 1014.64 1013.90 1013.49 1013.88 1014.09 1013.44 1013.23 1011.56 1009.42 1008.09 1007.81 1006.74 1006.71 1006.70 1006.58 1006.57 1006.54 1006.34 1006.72 1006.78 1007.45 1008.14 1010.52 1011.81 1011.78 1012.01 1012.05 1011.94 1012.23 1012.05 1011.70 1011.38 1011.08 1010.81 1010.60 1010.19 1009.71 1009.24
1020.42 1019.93 1019.54 1019.12 1018.80 1018.45 1018.05 1017.62 1017.15 1016.64 1016.19 1015.99 1015.67 1015.34 1014.80 1014.35 1013.28 1012.60 1013.19 1013.68 1013.18 1013.71 1013.21 1011.88 1010.01 1008.36 1007.57 1007.05 1007.15 1006.99 1006.97 1007.51 1008.02 1007.27 1007.72 1008.09 1009.47 1012.10 1013.31 1013.14 1013.12 1013.29 1013.29 1013.13 1012.99 1012.78 1012.62 1012.51 1012.29 1012.05 1011.79 1011.40 1010.95 1010.42
1020.13 1019.72 1019.33 1018.93 1018.61 1018.24 1017.82 1017.33 1016.81 1016.26 1015.85 1015.65 1015.43 1014.44 1013.66 1012.95 1013.18 1012.78 1012.51 1012.08 1011.71 1012.43 1013.56 1012.70 1010.38 1008.94 1008.42 1007.45 1007.18 1007.04 1007.61 1007.80 1008.41 1009.19 1009.36 1010.53 1012.84 1013.81 1013.96 1014.18 1014.44 1014.31 1014.22 1014.10 1013.84 1013.76 1013.63 1013.53 1013.35 1013.01 1012.64 1012.28 1011.86 1011.38
1019.99 1019.55 1019.20 1018.86 1018.50 1018.09 1017.64 1017.09 1016.51 1015.98 1014.95 1014.60 1014.43 1013.41 1012.86 1013.30 1013.34 1014.05 1014.09 1013.49 1012.79 1012.20 1012.50 1011.76 1010.92 1009.56 1009.44 1008.16 1007.91 1007.91 1007.17 1007.91 1009.01 1009.86 1010.26 1011.69 1013.91 1014.69 1015.04 1014.93 1014.82 1014.46 1014.25 1013.99 1013.92 1013.85 1013.81 1013.82 1013.39 1013.07 1012.67 1012.36 1011.93 1011.46
1019.82 1019.38 1018.98 1018.67 1018.37 1018.01 1017.57 1017.03 1016.34 1015.02 1015.09 1015.63 1015.37 1013.83 1012.76 1013.83 1014.23 1014.39 1013.73 1013.14 1012.69 1012.99 1012.94 1012.45 1011.54 1010.87 1010.15 1009.67 1008.50 1008.54 1008.22 1009.09 1009.37 1010.25 1011.73 1013.15 1014.83 1015.34 1015.21 1014.98 1014.94 1014.72 1014.32 1014.15 1014.04 1013.87 1014.10 1013.94 1013.57 1013.17 1012.71 1012.31 1012.11 1011.78
1019.65 1019.24 1018.83 1018.49 1018.20 1017.88 1017.49 1016.98 1016.62 1016.41 1015.68 1014.18 1014.53 1013.48 1013.33 1013.21 1013.94 1014.44 1014.64 1014.12 1013.83 1013.74 1013.32 1012.59 1012.02 1011.35 1010.77 1010.09 1009.40 1009.49 1009.58 1009.70 1010.41 1011.54 1012.78 1014.26 1015.36 1015.37 1015.45 1015.15 1014.61 1014.01 1013.99 1014.14 1014.23 1013.77 1013.89 1013.74 1013.60 1013.55 1013.20 1013.07 1012.84 1012.37
1019.40 1019.03 1018.68 1018.30 1017.97 1017.63 1017.23 1016.74 1016.39 1015.94 1015.57 1014.49 1014.24 1015.34 1015.26 1015.65 1016.43 1016.42 1015.96 1015.27 1014.65 1013.94 1013.46 1013.40 1012.44 1011.78 1011.53 1011.01 1011.28 1010.85 1010.91 1010.99 1011.64 1012.74 1013.99 1014.86 1015.33 1015.51 1015.37 1015.14 1014.49 1014.00 1013.99 1014.25 1014.21 1013.86 1013.89 1013.80 1013.81 1013.67 1013.68 1013.79 1013.28 1012.58
1019.09 1018.77 1018.43 1018.01 1017.69 1017.36 1016.93 1016.49 1016.17 1015.45 1014.89 1015.15 1015.83 1017.12 1017.67 1018.09 1017.86 1017.29 1016.48 1015.72 1015.07 1014.77 1014.22 1013.31 1012.79 1012.54 1012.43 1012.20 1012.32 1012.11 1011.69 1011.81 1012.63 1013.42 1014.49 1015.12 1015.23 1015.36 1015.31 1015.19 1014.57 1014.41 1014.33 1014.27 1014.25 1014.05 1013.94 1013.99 1014.02 1014.00 1013.79 1013.83 1013.39 1012.66
1018.64 1018.46 1018.03 1017.81 1017.40 1017.04 1016.74 1015.99 1015.60 1015.45 1016.13 1016.93 1017.87 1018.27 1018.44 1018.35 1018.12 1017.65 1017.10 1016.17 1015.65 1015.08 1014.01 1013.66 1013.51 1013.19 1013.27 1013.43 1013.54 1013.71 1013.47 1013.71 1013.90 1014.05 1014.47 1014.64 1014.95 1015.18 1015.19 1015.11 1014.79 1014.66 1014.57 1014.43 1014.28 1014.07 1013.91 1013.99 1013.91 1014.07 1013.96 1013.64 1013.14 1012.43
1018.36 1017.52 1017.98 1017.58 1017.05 1016.77 1016.45 1016.32 1016.13 1016.86 1017.44 1018.10 1018.71 1018.98 1018.81 1018.69 1018.51 1018.24 1017.80 1017.23 1016.58 1015.11 1014.79 1014.64 1014.69 1014.99 1014.44 1014.71 1015.03 1015.04 1014.56 1014.53 1014.36 1014.41 1014.44 1014.84 1014.99 1015.05 1015.06 1015.00 1014.78 1014.57 1014.12 1014.11 1014.00 1013.97 1013.94 1013.89 1013.75 1013.61 1013.50 1013.29 1012.92 1012.48
1017.38 1017.24 1017.70 1017.48 1016.93 1015.98 1015.50 1016.13 1016.65 1017.21 1017.87 1018.45 1018.46 1018.47 1018.46 1018.40 1018.07 1017.87 1017.61 1017.38 1016.81 1016.18 1016.03 1016.21 1016.03 1015.64 1015.22 1015.09 1015.06 1015.13 1015.13 1014.99 1015.04 1014.84 1014.81 1014.84 1014.84 1014.87 1014.83 1014.77 1014.37 1014.24 1013.78 1013.75 1014.08 1014.02 1013.95 1013.73 1013.66 1013.72 1013.61 1013.27 1012.90 1012.53
1018.10 1017.94 1017.67 1017.55 1017.47 1016.68 1014.99 1015.38 1015.70 1015.96 1016.57 1016.90 1017.14 1017.27 1017.31 1017.19 1017.27 1017.26 1017.04 1016.51 1016.48 1016.44 1016.23 1016.11 1015.65 1015.64 1015.66 1015.56 1015.53 1015.35 1015.29 1015.18 1015.00 1014.91 1014.83 1014.72 1014.73 1014.57 1014.62 1014.68 1014.13 1013.73 1013.57 1013.91 1013.92 1013.90 1014.10 1013.98 1013.79 1013.98 1013.83 1013.32 1013.26 1013.12
1018.30 1017.92 1017.42 1017.26 1017.21 1015.69 1014.74 1014.90 1015.39 1015.30 1015.21 1015.68 1015.73 1015.36 1015.56 1015.68 1015.65 1015.56 1015.36 1015.44 1015.26 1015.01 1015.10 1015.63 1016.13 1016.12 1015.81 1015.60 1015.42 1015.30 1015.30 1015.20 1014.86 1014.60 1014.45 1014.63 1014.07 1014.77 1014.99 1014.71 1014.14 1013.69 1013.49 1013.59 1013.76 1014.30 1014.22 1014.24 1013.77 1013.89 1013.90 1013.73 1013.44 1013.18
1017.93 1016.90 1016.81 1016.69 1015.57 1014.99 1014.71 1014.59 1014.43 1014.83 1015.08 1015.13 1014.80 1014.49 1015.41 1014.97 1015.02 1015.02 1014.89 1014.67 1014.92 1015.58 1016.04 1016.31 1016.11 1015.84 1015.64 1015.39 1015.06 1015.07 1014.98 1015.04 1015.08 1014.98 1014.78 1014.70 1014.57 1014.92 1014.90 1014.53 1013.90 1013.51 1013.51 1013.60 1013.92 1014.41 1014.59 1014.53 1014.24 1013.84 1013.54 1013.69 1013.45 1013.49
1016.70 1017.03 1016.47 1015.62 1014.75 1014.53 1014.14 1014.24 1013.92 1014.22 1014.74 1014.48 1014.53 1014.46 1014.78 1014.90 1014.82 1014.86 1015.03 1015.30 1016.12 1016.40 1016.42 1016.19 1015.83 1015.85 1015.96 1015.62 1015.18 1014.67 1014.35 1014.73 1014.90 1014.86 1014.53 1014.73 1014.86 1014.67 1014.31 1013.91 1013.66 1013.65 1013.54 1013.80 1014.11 1014.03 1014.68 1014.51 1014.24 1013.97 1013.76 1013.33 1013.17 1013.08
1017.09 1017.26 1015.77 1014.77 1014.25 1014.61 1014.51 1014.09 1014.11 1013.87 1014.07 1014.00 1013.84 1014.12 1014.48 1014.78 1014.83 1014.61 1015.50 1016.35 1016.54 1016.36 1015.84 1015.76 1015.65 1015.69 1015.72 1015.79 1015.41 1014.93 1015.05 1014.94 1014.79 1014.68 1014.58 1014.58 1014.37 1014.05 1013.53 1013.48 1013.26 1013.53 1013.75 1014.08 1014.10 1014.18 1014.21 1014.03 1014.02 1013.72 1013.31 1012.87 1012.44 1012.31
1017.60 1016.36 1014.98 1013.90 1013.64 1013.70 1013.51 1013.69 1013.43 1013.76 1013.99 1014.12 1014.06 1014.01 1014.08 1014.73 1015.01 1015.60 1016.09 1016.33 1016.56 1016.38 1015.93 1015.81 1015.53 1015.52 1015.29 1015.44 1014.95 1014.68 1014.24 1013.81 1014.17 1013.97 1013.65 1013.53 1013.12 1013.07 1013.01 1013.06 1013.17 1013.56 1013.86 1013.81 1013.66 1013.54 1013.79 1013.50 1013.36 1013.19 1013.05 1012.34 1012.22 1011.81
1017.14 1016.12 1015.21 1014.25 1013.35 1013.08 1012.92 1013.13 1013.47 1013.71 1013.90 1013.98 1014.08 1013.71 1014.16 1014.45 1015.00 1015.57 1016.29 1016.44 1016.26 1015.74 1015.55 1015.74 1015.74 1015.79 1015.73 1015.43 1014.71 1014.18 1013.87 1013.73 1013.54 1013.45 1013.48 1013.32 1013.20 1013.10 1013.17 1013.28 1013.39 1013.47 1013.58 1013.39 1013.46 1013.44 1013.32 1013.06 1012.62 1012.45 1012.51 1012.14 1011.98 1011.73
1016.40 1014.65 1014.31 1012.57 1012.29 1012.77 1012.54 1012.97 1013.22 1013.66 1013.78 1013.68 1013.84 1013.74 1013.87 1014.31 1014.81 1015.52 1016.02 1015.85 1015.56 1015.35 1015.83 1016.24 1015.34 1015.65 1015.94 1015.43 1014.80 1013.96 1013.81 1013.93 1013.80 1013.30 1013.44 1013.40 1013.37 1013.41 1013.36 1013.42 1013.69 1013.70 1013.62 1013.53 1013.51 1013.42 1013.15 1012.94 1012.55 1012.26 1011.96 1011.93 1011.89 1011.74
1014.90 1013.09 1012.59 1012.51 1012.21 1012.56 1012.90 1012.86 1013.01 1013.55 1013.64 1013.34 1012.99 1013.12 1013.51 1013.42 1014.28 1015.07 1015.39 1015.44 1015.20 1015.11 1014.84 1014.90 1014.83 1015.01 1014.95 1014.65 1014.48 1014.15 1014.06 1013.84 1013.75 1013.61 1013.42 1013.35 1013.33 1013.48 1013.40 1013.39 1013.68 1013.85 1013.61 1013.57 1013.29 1013.31 1013.08 1012.86 1012.58 1012.31 1012.09 1012.00 1012.09 1012.29
1013.72 1013.18 1012.46 1012.47 1012.25 1012.59 1013.00 1013.16 1013.43 1013.48 1013.34 1012.75 1012.62 1012.68 1012.85 1013.26 1013.94 1014.33 1014.70 1015.02 1015.02 1014.74 1014.40 1014.12 1013.87 1013.87 1014.40 1014.26 1014.24 1014.09 1014.12 1014.25 1013.93 1014.04 1013.76 1013.35 1013.36 1013.48 1013.52 1013.16 1013.21 1013.41 1013.25 1013.39 1013.25 1013.06 1012.96 1012.82 1012.77 1012.40 1011.99 1011.88 1011.90 1012.06
1013.17 1013.01 1012.50 1012.51 1012.55 1013.07 1013.20 1013.38 1013.45 1013.16 1012.87 1012.50 1012.11 1012.26 1012.97 1013.67 1014.11 1014.16 1014.60 1014.62 1014.36 1014.36 1014.05 1013.84 1013.38 1013.29 1013.55 1014.06 1014.02 1014.08 1014.18 1013.94 1014.14 1014.41 1014.47 1013.86 1013.57 1013.55 1013.50 1013.16 1012.89 1012.74 1012.66 1012.50 1013.15 1012.95 1012.84 1012.58 1012.61 1012.36 1012.14 1011.89 1012.02 1011.86
1013.06 1012.95 1013.02 1012.71 1012.71 1013.24 1013.39 1013.38 1013.35 1013.13 1012.84 1012.75 1012.84 1013.08 1013.31 1013.52 1013.80 1014.13 1014.06 1014.18 1014.14 1013.93 1013.83 1013.74 1013.37 1013.18 1013.20 1013.39 1013.64 1014.06 1013.92 1014.15 1014.56 1014.83 1015.10 1014.85 1014.40 1014.08 1013.92 1013.58 1013.23 1012.79 1012.61 1012.39 1012.17 1012.15 1012.40 1012.24 1012.12 1012.18 1012.30 1012.77 1012.74 1012.30
1013.25 1013.24 1013.25 1013.25 1013.26 1013.14 1013.21 1013.41 1013.42 1013.65 1013.55 1013.00 1012.51 1012.43 1012.47 1012.95 1013.11 1013.71 1014.04 1014.35 1014.07 1013.93 1013.91 1013.95 1013.52 1013.37 1013.71 1013.89 1014.21 1014.50 1014.55 1014.57 1015.13 1015.53 1015.86 1015.59 1015.10 1014.87 1014.80 1014.49 1013.79 1013.35 1013.06 1012.66 1012.21 1012.04 1012.17 1012.06 1012.11 1012.25 1012.32 1012.31 1012.37 1012.70
1013.27 1013.35 1013.21 1013.33 1013.50 1013.62 1013.52 1013.61 1013.54 1013.63 1013.61 1013.28 1012.69 1012.27 1012.22 1012.38 1012.56 1013.03 1013.80 1014.06 1013.95 1013.83 1014.63 1014.31 1013.91 1013.90 1014.44 1014.55 1014.62 1014.72 1015.39 1014.78 1015.13 1015.65 1016.15 1016.15 1015.98 1015.73 1015.37 1014.87 1014.24 1013.96 1013.64 1013.35 1012.66 1012.37 1012.34 1012.51 1012.82 1012.97 1012.71 1012.65 1012.64 1012.60
1013.05 1013.25 1013.39 1013.45 1013.50 1013.53 1013.60 1013.48 1013.58 1013.50 1013.54 1013.12 1012.56 1012.05 1011.94 1012.35 1012.73 1013.16 1013.95 1014.26 1014.37 1014.22 1014.16 1014.28 1014.17 1014.26 1014.40 1014.62 1014.85 1014.98 1015.02 1015.32 1015.90 1016.31 1016.59 1016.72 1016.67 1016.50 1016.05 1015.35 1015.19 1014.76 1014.36 1013.76 1013.39 1013.06 1012.76 1013.01 1013.16 1013.29 1013.21 1013.27 1012.96 1012.97
Wind_Speed
16 16 16 16 16 15 14 12 11 11 11 12 11 10 10 12 13 8 7 3 6 8 9 10 10 9 13 12 8 16 10 9 10 13 12 11 11 13 13 6 17 11 10 9 10 12 8 15 3 7 8 11 12 13
17 16 16 16 16 15 13 13 13 12 11 11 11 11 12 13 13 10 6 6 4 7 11 13 7 7 5 7 10 12 9 2 6 7 10 10 11 1 7 4 6 6 9 5 9 9 12 17 16 15 15 11 12 12
17 16 16 16 16 15 14 13 12 12 12 11 12 12 13 13 12 8 8 8 7 8 10 12 9 1 7 6 6 7 6 10 5 5 6 5 9 6 2 9 3 15 4 11 11 13 14 14 14 13 11 11 12 13
17 17 16 16 15 15 14 14 13 13 13 12 12 12 12 13 13 10 7 9 6 7 6 5 6 3 7 5 7 10 7 6 7 6 4 3 5 6 10 7 13 11 11 10 18 16 5 14 11 9 11 12 11 12
16 17 16 15 15 15 14 14 13 13 13 13 12 12 12 13 14 10 8 10 3 4 4 4 14 10 5 4 5 6 4 6 4 1 2 5 7 5 6 4 14 15 15 13 10 11 9 10 11 11 10 12 13 13
16 16 16 15 14 14 14 14 14 14 13 13 12 11 11 11 9 7 3 6 7 5 3 3 6 5 6 3 3 5 6 4 4 4 6 6 8 6 2 11 16 15 15 14 9 11 11 13 13 16 15 14 14 15
16 15 15 15 15 14 14 14 14 14 13 13 11 11 10 10 7 4 5 5 5 2 4 3 2 3 2 3 5 5 6 4 2 4 5 5 2 4 13 12 14 14 11 11 14 12 11 13 13 15 15 16 16 17
15 15 14 15 14 13 13 14 15 14 14 13 11 11 11 12 11 6 5 4 1 2 5 5 3 7 4 6 4 4 4 4 7 5 1 6 4 7 8 16 16 16 16 15 15 15 16 17 17 19 19 20 20 18
15 14 14 14 13 12 12 14 14 15 14 11 10 10 5 5 2 3 2 5 4 2 2 4 1 4 1 6 5 4 5 6 3 4 4 5 8 8 6 9 11 11 10 13 15 15 16 17 17 18 19 19 19 19
14 13 13 12 11 12 12 13 14 15 15 9 5 3 3 4 2 7 1 2 7 5 3 3 4 4 6 5 5 4 6 4 9 6 2 7 10 8 10 12 11 9 12 13 12 13 14 15 15 15 16 16 17 18
13 11 11 11 12 13 12 13 15 15 9 5 3 1 6 6 5 2 2 0 4 2 3 4 7 2 5 5 3 4 2 4 4 3 2 4 3 7 7 7 5 6 6 8 8 11 13 14 15 16 18 18 17 17
12 11 10 11 11 13 12 13 16 7 5 5 4 6 1 2 2 1 2 1 3 4 2 3 5 5 3 4 1 3 5 3 3 5 4 4 4 3 5 6 5 6 8 7 10 11 12 12 15 16 18 18 16 17
12 11 10 9 10 12 12 12 11 9 12 7 5 3 2 2 6 6 7 5 3 1 1 2 3 3 2 1 2 5 3 2 5 4 4 5 4 5 6 6 8 3 3 11 10 11 12 14 15 19 18 18 20 19
11 11 10 9 9 11 11 12 11 7 4 2 2 6 6 7 7 4 4 4 4 3 6 7 1 2 3 3 3 1 3 2 5 3 3 5 3 4 3 5 8 9 11 8 9 12 14 16 18 18 18 16 15 15
10 9 10 7 9 10 12 13 12 5 4 6 6 4 4 2 2 5 5 4 5 5 5 2 3 3 2 2 3 4 2 4 6 4 4 4 4 5 6 7 9 10 10 10 8 9 12 15 17 16 16 14 14 14
13 10 2 9 11 11 12 11 3 5 3 4 6 1 3 2 4 4 6 5 5 6 3 2 3 3 5 4 5 6 3 3 3 4 4 4 6 6 6 7 8 9 8 9 8 9 10 12 14 14 18 15 15 16
14 2 10 11 14 14 12 3 3 5 4 3 2 1 2 2 2 3 3 4 6 5 4 4 5 7 3 4 2 2 3 4 4 4 6 7 6 6 6 6 6 6 5 6 7 10 10 10 14 14 17 18 17 16
2 5 7 12 12 7 4 3 3 3 4 2 2 2 1 1 3 0 2 3 3 2 1 3 0 3 4 3 3 3 2 2 4 4 4 4 4 3 3 6 6 7 6 7 9 10 9 10 11 9 14 16 16 16
10 10 12 12 8 5 3 3 2 3 3 3 4 4 3 2 3 2 4 4 3 3 4 3 2 4 3 3 4 3 3 2 2 2 1 5 3 3 3 7 7 4 6 8 8 9 8 8 9 8 9 11 12 12
13 14 15 10 2 5 2 3 2 2 2 3 3 6 5 3 3 3 4 4 4 3 4 4 3 2 2 2 1 3 2 4 4 3 3 3 3 9 10 9 8 11 6 8 7 10 9 7 6 5 5 7 10 12
3 2 7 4 6 3 3 3 2 1 1 2 3 3 2 4 4 4 5 3 6 3 3 4 4 3 6 6 3 3 5 6 5 3 5 6 8 7 2 5 5 4 7 6 7 7 7 6 7 6 7 6 8 11
4 5 4 5 3 0 1 2 3 2 0 1 1 3 2 2 5 6 7 6 4 4 3 3 4 6 7 5 3 6 5 8 2 3 4 3 4 3 3 6 6 0 4 8 6 7 6 6 7 6 6 7 7 9
7 4 5 4 2 2 4 2 3 4 1 1 2 3 2 3 3 2 4 3 2 1 3 5 6 3 3 3 7 9 6 6 6 6 5 2 0 3 3 3 4 8 9 7 3 5 5 3 2 6 6 5 7 9
3 5 4 3 5 2 2 4 1 1 1 1 1 1 2 4 2 4 3 1 3 3 4 7 6 5 4 4 5 5 4 2 4 4 3 2 4 6 7 7 8 8 6 7 5 3 1 3 3 3 7 11 10 10
3 5 3 5 4 3 5 3 2 2 1 2 3 2 1 3 2 4 3 2 4 4 6 5 5 4 6 1 5 4 6 8 4 5 6 7 7 7 8 8 8 8 9 8 9 10 9 9 9 5 5 9 10 9
1 6 3 4 3 2 0 0 1 2 2 1 1 1 2 1 3 3 2 4 2 5 9 5 3 4 1 4 7 6 7 7 7 6 7 7 7 7 7 7 8 7 7 8 7 10 10 10 10 12 11 11 11 14
4 4 5 1 4 3 2 3 3 3 1 4 3 5 4 3 5 3 3 2 4 4 4 4 2 5 1 4 6 6 7 8 5 7 6 5 6 6 6 5 6 5 4 7 7 9 9 10 12 11 10 10 11 11
3 5 4 3 3 1 0 3 3 1 2 2 2 3 4 5 4 3 5 2 1 4 4 5 3 2 5 1 3 6 7 7 7 9 8 4 6 6 7 5 3 6 3 1 5 7 8 7 10 12 12 10 9 9
4 5 4 4 3 3 1 1 1 2 1 3 2 4 3 4 2 2 4 3 3 2 3 4 5 3 8 6 2 3 3 4 5 7 9 9 8 7 7 7 7 6 6 1 3 3 5 4 6 7 13 11 11 10
1 2 3 5 1 2 2 2 2 3 2 3 4 4 5 5 6 2 1 3 3 3 3 5 5 4 5 5 5 8 4 7 9 8 7 9 10 9 9 10 12 9 8 8 9 4 2 9 7 10 11 9 8 9
3 2 4 1 2 2 4 4 1 2 2 7 2 2 6 3 6 6 4 2 4 3 4 5 6 6 6 7 6 5 7 5 8 7 7 9 10 9 9 9 10 10 11 13 11 8 9 9 8 10 10 10 13 13
3 5 3 4 3 2 2 2 2 0 2 5 6 4 5 4 3 5 5 2 3 2 6 3 5 6 6 6 6 5 3 5 7 8 10 9 9 10 9 9 9 10 11 12 13 11 11 13 10 10 11 14 13 14
4 4 4 4 3 4 3 4 4 3 3 5 9 7 1 3 3 3 4 2 3 4 4 3 3 2 4 1 5 4 4 8 11 8 4 1 4 6 8 8 9 11 13 11 12 12 11 12 10 13 14 14 12 13
Wind_Direction
340 339 340 343 344 345 345 342 343 334 336 342 346 344 336 334 340 329 305 288 295 300 314 335 356 347 340 359 339 324 176 229 201 228 239 228 236 218 227 212 204 199 238 250 279 237 105 327 2 48 95 65 41 30
339 338 339 341 342 343 341 344 344 341 341 338 338 336 333 331 334 335 283 330 269 266 312 298 304 292 291 308 312 318 293 211 16 220 236 246 247 195 261 107 232 57 7 74 32 95 81 59 66 48 62 59 33 24
334 335 337 338 339 340 342 340 339 334 333 331 327 326 325 322 325 325 305 314 266 253 249 250 213 208 291 269 291 297 342 355 26 334 301 339 62 345 226 77 355 113 273 120 119 111 95 75 56 39 50 40 21 14
333 335 336 336 336 336 338 339 336 330 324 323 323 322 321 316 313 315 292 301 291 312 288 105 129 199 294 29 307 306 308 272 281 296 321 343 67 15 44 79 55 39 32 59 92 34 62 64 39 22 33 16 4 360
333 334 333 331 332 332 332 333 333 330 327 324 319 319 317 311 319 303 285 280 358 339 308 295 306 189 121 24 330 301 321 314 300 195 312 36 48 12 63 12 50 41 28 32 64 36 12 12 343 20 7 352 345 346
331 331 332 331 330 330 329 330 329 328 327 324 317 311 308 308 325 286 317 75 17 331 314 3 298 48 88 97 97 45 11 350 311 325 67 61 20 340 53 85 65 62 37 22 20 22 349 337 346 356 346 335 333 331
326 325 326 326 328 327 326 326 328 327 325 322 312 304 306 310 290 287 357 12 5 4 34 272 269 109 298 115 96 84 49 360 298 51 39 84 71 305 59 62 39 43 33 13 19 2 346 347 338 335 325 327 325 319
325 324 323 321 320 320 318 320 323 322 321 318 307 303 301 299 277 260 167 202 353 132 231 257 182 155 254 163 116 114 105 48 5 62 178 88 167 47 56 23 26 27 13 12 359 345 338 335 333 335 333 329 324 318
324 326 328 325 320 316 315 318 320 316 311 315 300 302 274 213 237 60 250 189 231 145 14 324 48 124 290 96 109 97 92 96 299 77 73 332 61 56 22 14 19 10 0 352 347 343 347 338 333 332 329 322 318 316
328 336 340 340 338 326 320 319 319 314 312 302 263 226 242 46 333 276 198 269 193 154 62 284 256 129 333 192 120 140 137 149 114 80 100 87 87 53 34 36 27 4 3 356 347 350 343 337 335 327 324 327 327 321
333 339 334 328 341 338 327 322 320 325 279 215 210 281 95 75 26 88 235 297 284 79 47 334 12 43 5 21 42 357 146 98 114 151 112 92 59 59 28 19 354 353 5 347 357 346 355 337 332 332 325 320 312 309
333 333 327 322 321 335 331 329 328 300 17 338 306 260 339 90 184 241 247 178 18 61 60 20 39 354 50 308 356 335 90 101 117 108 119 85 107 59 351 3 2 312 325 337 359 357 348 335 335 331 327 325 323 322
333 331 323 319 324 332 329 323 321 306 285 240 224 309 33 291 33 29 25 17 55 30 78 37 92 358 301 317 29 13 77 94 71 38 81 71 104 26 9 343 308 282 6 43 345 353 1 346 355 347 342 342 334 323
332 325 316 309 315 324 318 312 315 329 273 242 10 26 0 23 27 12 357 5 23 329 33 335 99 6 36 9 9 285 45 132 109 72 99 103 52 5 3 353 308 359 21 13 337 2 8 2 354 355 357 343 326 321
330 317 307 306 329 325 312 307 307 274 350 19 35 40 30 322 299 330 324 20 22 10 312 352 9 49 23 40 9 348 60 58 43 81 118 103 35 24 6 343 349 357 3 345 357 353 8 4 4 351 356 342 331 321
325 296 305 330 327 320 308 296 264 26 53 47 42 8 337 291 8 3 6 6 9 320 289 352 16 35 47 27 34 20 46 50 75 42 22 3 22 350 333 332 348 351 357 346 335 345 2 2 4 6 356 355 344 339
303 1 9 343 321 300 285 329 35 53 53 45 9 345 319 303 325 335 334 348 328 298 34 2 50 28 7 61 76 357 46 60 22 7 0 3 327 325 326 330 342 314 5 1 5 359 0 3 356 3 2 357 351 348
331 58 23 344 332 272 119 67 85 80 70 57 340 320 342 327 291 277 299 316 336 34 23 70 195 46 39 24 62 72 75 33 359 334 314 313 307 321 346 349 321 322 335 48 24 11 7 17 9 10 6 5 2 359
332 319 320 316 328 301 29 94 343 79 104 141 188 190 208 135 188 211 244 194 162 160 155 194 73 37 49 41 57 44 36 356 341 310 280 28 7 37 359 312 312 325 45 60 52 22 3 352 11 21 3 15 12 5
290 276 277 284 304 272 73 86 251 179 85 80 286 64 75 77 84 185 173 191 204 195 59 49 45 34 19 23 13 355 4 324 346 0 20 12 21 67 46 332 336 336 65 37 55 30 13 346 10 14 25 18 17 7
192 145 263 224 204 344 10 329 127 13 74 269 325 81 5 82 66 61 14 116 70 42 70 42 23 13 4 0 26 18 18 20 15 8 10 15 22 22 320 284 268 316 70 36 33 42 16 357 13 351 26 33 22 31
30 325 278 168 280 153 207 25 2 64 228 238 91 32 76 89 63 61 57 56 41 31 36 10 28 49 52 9 351 16 20 93 292 306 337 99 42 46 347 356 350 175 29 43 15 41 27 19 18 10 10 9 19 33
277 205 230 233 228 78 241 245 236 194 216 315 165 171 71 65 10 61 60 40 59 186 76 39 6 25 120 257 307 52 69 64 49 24 36 91 203 278 320 57 18 43 45 40 19 32 45 22 10 3 9 348 10 28
154 274 284 272 171 242 170 213 175 118 239 233 238 82 106 130 62 55 55 59 161 243 20 26 33 36 65 69 38 7 346 67 153 8 3 23 337 31 36 35 50 62 46 16 358 13 83 318 11 44 359 11 13 354
270 283 166 278 270 227 203 175 154 166 203 48 305 138 142 103 95 93 95 341 330 11 36 96 55 26 4 356 334 310 38 14 44 28 35 20 16 20 25 33 26 49 27 9 21 10 12 1 354 44 29 1 17 18
300 201 182 249 143 172 127 248 167 157 32 46 61 199 95 226 94 81 72 332 119 28 58 342 18 88 111 291 303 22 49 45 351 17 45 15 33 22 17 41 22 14 27 18 32 3 10 4 3 4 12 29 27 28
255 230 189 226 313 78 332 334 76 79 212 229 191 171 202 197 108 112 119 274 23 353 333 195 184 166 226 28 359 33 17 10 29 1 17 31 44 38 1 46 39 4 353 10 18 24 0 3 3 8 16 33 43 41
283 292 266 218 216 108 238 12 48 185 209 269 307 25 32 26 78 98 112 89 269 275 324 332 233 164 127 274 30 25 12 338 15 22 335 20 54 41 350 357 56 180 242 31 2 23 9 15 352 355 359 20 31 42
232 295 274 211 203 93 148 56 180 256 5 298 277 71 106 91 105 64 101 238 265 323 1 334 331 109 150 124 126 40 27 10 47 31 351 342 9 24 355 352 352 356 9 315 182 358 20 21 17 352 345 27 17 20
322 243 254 252 163 135 172 189 228 49 7 78 104 138 169 157 131 109 19 61 335 328 23 330 328 25 15 39 69 25 29 49 35 24 12 340 335 359 350 350 343 352 1 345 342 9 33 5 16 14 29 36 3 354
292 228 231 175 133 116 143 152 335 143 255 295 23 298 106 85 149 151 114 15 310 322 42 344 330 46 27 21 40 28 354 35 77 37 25 340 340 353 351 331 330 345 347 345 343 6 1 351 16 7 3 14 17 48
262 231 215 145 144 142 142 174 145 238 130 260 257 246 183 196 191 123 98 7 309 332 133 286 337 53 56 337 40 78 192 336 52 34 20 1 351 346 332 318 347 347 356 336 338 352 10 32 29 3 353 1 4 8
196 212 172 151 139 150 189 183 183 179 252 253 267 237 55 45 10 83 120 77 4 324 6 339 343 340 144 97 52 8 323 87 105 113 140 265 317 322 312 356 1 349 353 344 353 338 14 34 17 3 10 355 353 9